User: anonymous   Login
Location: South Tamworth Observatory
(43.8246°N, 71.3026°W)
Time: 13:21:55
(UTC-05:00)
Language:

Cosmos 1844 - Orbit

View from above orbital plane
View from above orbital plane
View from above satellite
View from above satellite

Ground track
Ground track

The orbit data is extracted from the following two-line orbital elements,

1 17973U 87041A   16339.17245984 -.00000213  00000-0 -86091-4 0  9995
2 17973  70.8979 324.5678 0028775  55.7153 304.6686 14.14036247525578
Epoch (UTC): 04 December 2016 04:08:20
Eccentricity: 0.0028775
inclination: 70.8979°
perigee height: 825 km
apogee height: 866 km
right ascension of ascending node: 324.5678°
argument of perigee: 55.7153°
revolutions per day: 14.14036247
mean anomaly at epoch: 304.6686°
orbit number at epoch: 52557

The dashed part of the orbit path shows where the satellite is in the earth's shadow,  

DLR